Pompano Beach, FL

10:21 PM EST on February 22, 2017 (GMT -0500)
Pompano Beach

Weather History for KPMP - July, 2012

Change the Weather History Date:

Monday, July 30, 2012

  Actual Average Record
Temperature  
Mean Temperature 84 °F -  
Max Temperature 90 °F 92 °F 97 °F (1990)
Min Temperature 78 °F 76 °F 67 °F (1950)
Cooling Degree Days 18    
Growing Degree Days 34 (Base 50)    
Moisture  
Dew Point 72 °F    
Average Humidity 69    
Maximum Humidity 84    
Minimum Humidity 53    
Precipitation  
Precipitation 0.00 in - - ()
Sea Level Pressure  
Sea Level Pressure 30.05 in    
Wind  
Wind Speed 5 mph (SSE)    
Max Wind Speed 14 mph    
Max Gust Speed -    
Visibility 10 miles    
Events      
Averages and records for this station are not official NWS values.
T = Trace of Precipitation, MM = Missing Value Source: NWS Daily Summary

Daily Weather History Graph

Daily Weather History Graph

Search for Another Location

Airport or City:

Trip Planner

Search our weather history database for the weather conditions in past years. The results will help you decide how hot, cold, wet, or windy it might be!

Date:

Astronomy

Jul. 30, 2012 Rise Set
Actual Time 6:45 AM EDT 8:08 PM EDT
Civil Twilight 6:20 AM EDT 8:33 PM EDT
Nautical Twilight 5:50 AM EDT 9:02 PM EDT
Astronomical Twilight 5:19 AM EDT 9:33 PM EDT
Moon 6:04 PM EDT (7/30) 4:04 AM EDT (7/30)
Length of Visible Light 14h 12m
Length of Day
13h 22m
Waxing Gibbous, 92% of the Moon is Illuminated
Jul 30
Waxing Gibbous
Aug 1
Full
Aug 9
Last Quarter
Aug 17
New
Aug 24
First Quarter

Hourly Weather History & Observations

Time (EDT) Temp. Heat Index Dew Point Humidity Pressure Visibility Wind Dir Wind Speed Gust Speed Precip Events Conditions
12:53 AM 82.9 °F 88.0 °F 72.0 °F 69% 30.07 in 10.0 mi SE 6.9 mph - N/A   Clear
1:53 AM 82.0 °F 86.7 °F 72.0 °F 71% 30.06 in 10.0 mi SE 5.8 mph - N/A   Clear
2:53 AM 82.0 °F 87.4 °F 73.0 °F 74% 30.03 in 10.0 mi South 4.6 mph - N/A   Clear
3:53 AM 80.1 °F 84.2 °F 73.0 °F 79% 30.01 in 10.0 mi Calm Calm - N/A   Clear
4:53 AM 79.0 °F - 73.9 °F 84% 30.02 in 10.0 mi WSW 3.5 mph - N/A   Partly Cloudy
5:40 AM 80.6 °F 85.4 °F 73.4 °F 79% 30.02 in 10.0 mi Calm Calm - N/A   Overcast
5:53 AM 79.0 °F - 73.9 °F 84% 30.03 in 10.0 mi Calm Calm - N/A   Mostly Cloudy
6:53 AM 79.0 °F - 73.0 °F 82% 30.04 in 10.0 mi NW 3.5 mph - N/A   Clear
7:53 AM 81.0 °F 86.2 °F 73.9 °F 79% 30.05 in 10.0 mi WNW 3.5 mph - N/A   Partly Cloudy
8:53 AM 84.0 °F 91.2 °F 73.9 °F 72% 30.06 in 10.0 mi Calm Calm - N/A   Clear
9:53 AM 84.9 °F 92.1 °F 73.9 °F 69% 30.06 in 10.0 mi Calm Calm - N/A   Clear
10:53 AM 84.9 °F 90.1 °F 71.1 °F 63% 30.07 in 10.0 mi Calm Calm - N/A   Mostly Cloudy
11:53 AM 84.0 °F 92.6 °F 75.9 °F 76% 30.08 in 10.0 mi ESE 5.8 mph - N/A   Scattered Clouds
12:53 PM 89.1 °F 98.0 °F 73.9 °F 61% 30.06 in 10.0 mi East 9.2 mph - N/A   Scattered Clouds
1:53 PM 88.0 °F 94.7 °F 72.0 °F 59% 30.04 in 10.0 mi East 6.9 mph - N/A   Clear
2:53 PM 89.1 °F 98.0 °F 73.9 °F 61% 30.03 in 10.0 mi ESE 10.4 mph - N/A   Scattered Clouds
3:53 PM 89.1 °F 95.0 °F 71.1 °F 55% 30.01 in 10.0 mi East 10.4 mph - N/A   Partly Cloudy
4:53 PM 89.1 °F 94.1 °F 70.0 °F 53% 30.01 in 10.0 mi SE 13.8 mph - N/A   Clear
5:53 PM 87.1 °F 94.5 °F 73.0 °F 63% 30.01 in 10.0 mi SE 11.5 mph - N/A   Clear
6:53 PM 86.0 °F 92.2 °F 72.0 °F 63% 30.03 in 10.0 mi SSE 8.1 mph - N/A   Scattered Clouds
7:53 PM 82.0 °F 83.4 °F 64.0 °F 54% 30.07 in 10.0 mi West 12.7 mph - N/A   Partly Cloudy
8:38 PM 78.8 °F - 69.8 °F 74% 30.06 in 10.0 mi West 8.1 mph - N/A   Clear
8:53 PM 79.0 °F - 69.1 °F 72% 30.06 in 10.0 mi NNW 4.6 mph - N/A   Clear
9:53 PM 80.1 °F 82.9 °F 69.1 °F 69% 30.06 in 10.0 mi Calm Calm - N/A   Clear
10:53 PM 80.1 °F 82.9 °F 69.1 °F 69% 30.08 in 10.0 mi Calm Calm - N/A   Clear
11:53 PM 80.1 °F 82.7 °F 68.0 °F 67% 30.07 in 10.0 mi SW 4.6 mph - N/A   Clear